STARLINK-1819 (46670 NORAD) Tracking and Keplerian Element Data
This shows tracking and keplerian element data for the satellite.
Feedback or suggestion? Click here.
Element | Value |
Catalog | 46670 |
Name | STARLINK-1819 |
Epoch Orbit | 226 |
Epoch Day | 298.85060006 |
Epoch Year | 2020 |
RAAN | 77.8706 |
Inclination | 53.0515 |
Eccentricity | 0.0011864 |
Argument of Perigee | 337.4012 |
Mean Anonmoly | 22.6738 |
Mean Motion | 16.28223676 |
Decay Rate | 0.10787455 |
L1 | 1 46670U 20073A 20298.85060006 .10787455 12210-4 26642-2 0 9990 |
L2 | 2 46670 53.0515 77.8706 0011864 337.4012 22.6738 16.28223676 2260 |
Live tracking and technical data element details for STARLINK-1819 (NORAD 46670). STARLINK-1819 can be tracked NOW for your location showing map with azimuth and elevation plus other details from your city location.
Track the satellite on the map from your city or location and see movement details for azimuth, elevation, latitude, longitude, range, height, and movement on the map or in text.
IsCatalogInMostPopularTable: catalog: 46670, numindb: 39
Update: records affected: 1
GetName: 46670 STARLINK-1819
Hit Count: updated at: Thu, 28 Jan 2021 12:58:18 GMT